Montgomery, NY

1:30 PM EST on January 24, 2017 (GMT -0500)
Orange County

Weather History for KMGJ - September, 2013

Change the Weather History Date:

Wednesday, September 18, 2013

  Actual Average (KSWF) Record (KSWF)
Temperature  
Mean Temperature 54 °F -  
Max Temperature 70 °F 71 °F 90 °F (1991)
Min Temperature 39 °F 51 °F 33 °F (1986)
Degree Days  
Heating Degree Days 10    
Growing Degree Days 4 (Base 50)    
Moisture  
Dew Point 43 °F    
Average Humidity 75    
Maximum Humidity 96    
Minimum Humidity 36    
Precipitation  
Precipitation 0.00 in - - ()
Sea Level Pressure  
Sea Level Pressure 30.27 in    
Wind  
Wind Speed 2 mph (South)    
Max Wind Speed 8 mph    
Max Gust Speed -    
Visibility 10 miles    
Events      
Averages and records for this station are not official NWS values.
T = Trace of Precipitation, MM = Missing Value Source: NWS Daily Summary

Daily Weather History Graph

Daily Weather History Graph

Search for Another Location

Airport or City:

Trip Planner

Search our weather history database for the weather conditions in past years. The results will help you decide how hot, cold, wet, or windy it might be!

Date:

Astronomy

Sep. 18, 2013 Rise Set
Actual Time 6:40 AM EDT 7:00 PM EDT
Civil Twilight 6:12 AM EDT 7:28 PM EDT
Nautical Twilight 5:40 AM EDT 8:01 PM EDT
Astronomical Twilight 5:06 AM EDT 8:34 PM EDT
Moon 6:22 PM EDT (9/18) 5:39 AM EDT (9/18)
Length of Visible Light 13h 15m
Length of Day
12h 20m
Waxing Gibbous, 99% of the Moon is Illuminated
Sep 18
Waxing Gibbous
Sep 19
Full
Sep 26
Last Quarter
Oct 4
New
Oct 11
First Quarter

Hourly Weather History & Observations

Time (EDT) Temp. Windchill Dew Point Humidity Pressure Visibility Wind Dir Wind Speed Gust Speed Precip Events Conditions
12:54 AM 42.1 °F - 39.9 °F 92% 30.36 in 10.0 mi Calm Calm - N/A   Clear
1:54 AM 41.0 °F - 39.9 °F 96% 30.35 in 10.0 mi Calm Calm - N/A   Clear
2:54 AM 39.9 °F - 37.9 °F 93% 30.35 in 10.0 mi Calm Calm - N/A   Clear
3:54 AM 39.0 °F - 37.0 °F 93% 30.34 in 10.0 mi Calm Calm - N/A   Clear
4:54 AM 39.0 °F - 37.0 °F 93% 30.34 in 10.0 mi Calm Calm - N/A   Clear
5:54 AM 39.0 °F - 37.0 °F 93% 30.35 in 10.0 mi Calm Calm - N/A   Clear
6:54 AM 39.0 °F - 37.0 °F 93% 30.35 in 10.0 mi Calm Calm - N/A   Clear
7:54 AM 42.1 °F 40.2 °F 39.9 °F 92% 30.35 in 10.0 mi SSW 3.5 mph - N/A   Clear
8:54 AM 48.0 °F - 45.0 °F 89% 30.34 in 10.0 mi Calm Calm - N/A   Clear
9:54 AM 55.0 °F - 46.9 °F 74% 30.33 in 10.0 mi South 4.6 mph - N/A   Clear
10:54 AM 61.0 °F - 46.9 °F 60% 30.31 in 10.0 mi SSW 6.9 mph - N/A   Clear
11:54 AM 64.0 °F - 48.0 °F 56% 30.29 in 10.0 mi South 5.8 mph - N/A   Clear
12:54 PM 66.9 °F - 46.9 °F 49% 30.27 in 10.0 mi South 6.9 mph - N/A   Clear
1:54 PM 68.0 °F - 46.0 °F 45% 30.24 in 10.0 mi SSE 4.6 mph - N/A   Clear
2:54 PM 69.1 °F - 46.0 °F 44% 30.22 in 10.0 mi Variable 3.5 mph - N/A   Clear
3:54 PM 70.0 °F - 42.1 °F 36% 30.21 in 10.0 mi South 4.6 mph - N/A   Clear
4:54 PM 70.0 °F - 43.0 °F 38% 30.19 in 10.0 mi SSW 8.1 mph - N/A   Clear
5:54 PM 66.9 °F - 45.0 °F 45% 30.19 in 10.0 mi SW 3.5 mph - N/A   Clear
6:54 PM 59.0 °F - 50.0 °F 72% 30.18 in 10.0 mi Calm Calm - N/A   Clear
7:54 PM 53.1 °F - 48.9 °F 86% 30.19 in 10.0 mi Calm Calm - N/A   Clear
8:54 PM 48.9 °F - 46.9 °F 93% 30.19 in 10.0 mi Calm Calm - N/A   Clear
9:54 PM 48.9 °F - 46.9 °F 93% 30.20 in 10.0 mi Calm Calm - N/A   Clear
10:54 PM 48.0 °F - 45.0 °F 89% 30.19 in 10.0 mi Calm Calm - N/A   Clear
11:54 PM 46.0 °F - 44.1 °F 93% 30.19 in 10.0 mi Calm Calm - N/A   Clear